User: anonymous   Login
Location: Unspecified
(0.0000°N, 0.0000°E)
Time: 11:51:33
(UTC+00:00)
Language:

nSIGHT-1 - Orbit

View from above orbital plane
View from above orbital plane
View from above satellite
View from above satellite

Ground track
Ground track

The orbit data is extracted from the following two-line orbital elements,

1 42726U 98067MF  18347.77849628  .00008025  00000-0  85029-4 0  9998
2 42726  51.6393 179.8015 0005859 175.5609 270.6886 15.65148585 88495
Epoch (UTC): 13 December 2018 18:41:02
Eccentricity: 0.0005859
inclination: 51.6393°
perigee height: 369 km
apogee height: 377 km
right ascension of ascending node: 179.8015°
argument of perigee: 175.5609°
revolutions per day: 15.65148585
mean anomaly at epoch: 270.6886°
orbit number at epoch: 8849

The dashed part of the orbit path shows where the satellite is in the earth's shadow,  

DLR